Time,TemperatureF,DewpointF,PressureIn,WindDirection,WindDirectionDegrees,WindSpeedMPH,WindSpeedGustMPH,Humidity,HourlyPrecipIn,Conditions,Clouds,dailyrainin,SoftwareType,DateUTC
2013-07-04 00:00:00,75.2,61.2,29.48,North,-999,-999.0,-999.0,61,-99.99,,,-99.99,thermd,2013-07-04 04:00:00,
2013-07-04 00:10:00,74.9,61.0,29.48,North,-999,-999.0,-999.0,62,-99.99,,,-99.99,thermd,2013-07-04 04:10:00,
2013-07-04 00:20:00,74.8,61.0,29.48,North,-999,-999.0,-999.0,62,-99.99,,,-99.99,thermd,2013-07-04 04:20:00,
2013-07-04 00:30:00,74.7,61.0,29.48,North,-999,-999.0,-999.0,62,-99.99,,,-99.99,thermd,2013-07-04 04:30:00,
2013-07-04 00:40:00,74.9,61.6,29.48,North,-999,-999.0,-999.0,62,-99.99,,,-99.99,thermd,2013-07-04 04:40:00,
2013-07-04 00:50:00,75.2,61.7,29.48,North,-999,-999.0,-999.0,62,-99.99,,,-99.99,thermd,2013-07-04 04:50:00,
2013-07-04 01:00:00,75.1,61.7,29.47,North,-999,-999.0,-999.0,63,-99.99,,,-99.99,thermd,2013-07-04 05:00:00,
2013-07-04 01:10:00,75.1,61.7,29.47,North,-999,-999.0,-999.0,63,-99.99,,,-99.99,thermd,2013-07-04 05:10:00,
2013-07-04 01:20:00,75.0,61.6,29.47,North,-999,-999.0,-999.0,63,-99.99,,,-99.99,thermd,2013-07-04 05:20:00,
2013-07-04 01:30:00,74.8,61.7,29.47,North,-999,-999.0,-999.0,63,-99.99,,,-99.99,thermd,2013-07-04 05:30:00,
2013-07-04 01:40:00,74.8,61.7,29.47,North,-999,-999.0,-999.0,63,-99.99,,,-99.99,thermd,2013-07-04 05:40:00,
2013-07-04 01:50:00,74.7,61.5,29.47,North,-999,-999.0,-999.0,63,-99.99,,,-99.99,thermd,2013-07-04 05:50:00,
2013-07-04 02:00:00,74.4,61.5,29.47,North,-999,-999.0,-999.0,64,-99.99,,,-99.99,thermd,2013-07-04 06:00:00,
2013-07-04 02:10:00,74.2,61.4,29.47,North,-999,-999.0,-999.0,64,-99.99,,,-99.99,thermd,2013-07-04 06:10:00,
2013-07-04 02:20:00,74.0,61.5,29.46,North,-999,-999.0,-999.0,65,-99.99,,,-99.99,thermd,2013-07-04 06:20:00,
2013-07-04 02:30:00,74.0,61.5,29.47,North,-999,-999.0,-999.0,65,-99.99,,,-99.99,thermd,2013-07-04 06:30:00,
2013-07-04 02:40:00,73.7,61.4,29.46,North,-999,-999.0,-999.0,65,-99.99,,,-99.99,thermd,2013-07-04 06:40:00,
2013-07-04 02:50:00,73.5,61.5,29.47,North,-999,-999.0,-999.0,65,-99.99,,,-99.99,thermd,2013-07-04 06:50:00,
2013-07-04 03:00:00,73.7,61.7,29.47,North,-999,-999.0,-999.0,66,-99.99,,,-99.99,thermd,2013-07-04 07:00:00,
2013-07-04 03:10:00,73.7,61.7,29.47,North,-999,-999.0,-999.0,66,-99.99,,,-99.99,thermd,2013-07-04 07:10:00,
2013-07-04 03:20:00,73.6,61.7,29.48,North,-999,-999.0,-999.0,66,-99.99,,,-99.99,thermd,2013-07-04 07:20:00,
2013-07-04 03:30:00,73.5,61.6,29.48,North,-999,-999.0,-999.0,66,-99.99,,,-99.99,thermd,2013-07-04 07:30:00,
2013-07-04 03:40:00,73.5,61.7,29.48,North,-999,-999.0,-999.0,66,-99.99,,,-99.99,thermd,2013-07-04 07:40:00,
2013-07-04 03:50:00,73.6,61.7,29.47,North,-999,-999.0,-999.0,66,-99.99,,,-99.99,thermd,2013-07-04 07:50:00,
2013-07-04 04:00:00,73.6,61.8,29.47,North,-999,-999.0,-999.0,66,-99.99,,,-99.99,thermd,2013-07-04 08:00:00,
2013-07-04 04:10:00,73.7,61.8,29.47,North,-999,-999.0,-999.0,66,-99.99,,,-99.99,thermd,2013-07-04 08:10:00,
2013-07-04 04:20:00,73.5,61.8,29.48,North,-999,-999.0,-999.0,66,-99.99,,,-99.99,thermd,2013-07-04 08:20:00,
2013-07-04 04:30:00,73.6,61.8,29.48,North,-999,-999.0,-999.0,66,-99.99,,,-99.99,thermd,2013-07-04 08:30:00,
2013-07-04 04:40:00,73.5,61.9,29.48,North,-999,-999.0,-999.0,66,-99.99,,,-99.99,thermd,2013-07-04 08:40:00,
2013-07-04 04:50:00,73.5,61.6,29.49,North,-999,-999.0,-999.0,67,-99.99,,,-99.99,thermd,2013-07-04 08:50:00,
2013-07-04 05:00:00,72.9,61.4,29.49,North,-999,-999.0,-999.0,67,-99.99,,,-99.99,thermd,2013-07-04 09:00:00,
2013-07-04 05:10:00,72.4,61.2,29.49,North,-999,-999.0,-999.0,68,-99.99,,,-99.99,thermd,2013-07-04 09:10:00,
2013-07-04 05:20:00,72.1,61.3,29.49,North,-999,-999.0,-999.0,68,-99.99,,,-99.99,thermd,2013-07-04 09:20:00,
2013-07-04 05:30:00,72.0,61.3,29.49,North,-999,-999.0,-999.0,69,-99.99,,,-99.99,thermd,2013-07-04 09:30:00,
2013-07-04 05:40:00,72.1,61.6,29.49,North,-999,-999.0,-999.0,69,-99.99,,,-99.99,thermd,2013-07-04 09:40:00,
2013-07-04 05:50:00,72.2,61.7,29.49,North,-999,-999.0,-999.0,69,-99.99,,,-99.99,thermd,2013-07-04 09:50:00,
2013-07-04 06:00:00,72.2,62.0,29.50,North,-999,-999.0,-999.0,69,-99.99,,,-99.99,thermd,2013-07-04 10:00:00,
2013-07-04 06:10:00,72.2,61.9,29.50,North,-999,-999.0,-999.0,70,-99.99,,,-99.99,thermd,2013-07-04 10:10:00,
2013-07-04 06:20:00,72.2,61.8,29.50,North,-999,-999.0,-999.0,70,-99.99,,,-99.99,thermd,2013-07-04 10:20:00,
2013-07-04 06:30:00,72.1,61.9,29.50,North,-999,-999.0,-999.0,70,-99.99,,,-99.99,thermd,2013-07-04 10:30:00,
2013-07-04 06:40:00,72.0,61.8,29.51,North,-999,-999.0,-999.0,70,-99.99,,,-99.99,thermd,2013-07-04 10:40:00,
2013-07-04 06:50:00,71.9,61.8,29.51,North,-999,-999.0,-999.0,70,-99.99,,,-99.99,thermd,2013-07-04 10:50:00,
2013-07-04 07:00:00,71.7,61.8,29.51,North,-999,-999.0,-999.0,70,-99.99,,,-99.99,thermd,2013-07-04 11:00:00,
2013-07-04 07:10:00,71.7,61.9,29.51,North,-999,-999.0,-999.0,71,-99.99,,,-99.99,thermd,2013-07-04 11:10:00,
2013-07-04 07:20:00,71.8,61.9,29.51,North,-999,-999.0,-999.0,71,-99.99,,,-99.99,thermd,2013-07-04 11:20:00,
2013-07-04 07:30:00,71.6,61.9,29.52,North,-999,-999.0,-999.0,71,-99.99,,,-99.99,thermd,2013-07-04 11:30:00,
2013-07-04 07:40:00,71.7,62.1,29.52,North,-999,-999.0,-999.0,71,-99.99,,,-99.99,thermd,2013-07-04 11:40:00,
2013-07-04 07:50:00,71.8,62.1,29.52,North,-999,-999.0,-999.0,71,-99.99,,,-99.99,thermd,2013-07-04 11:50:00,
2013-07-04 08:00:00,71.8,62.3,29.52,North,-999,-999.0,-999.0,71,-99.99,,,-99.99,thermd,2013-07-04 12:00:00,
2013-07-04 08:10:00,71.9,62.1,29.53,North,-999,-999.0,-999.0,71,-99.99,,,-99.99,thermd,2013-07-04 12:10:00,
2013-07-04 08:20:00,71.9,62.5,29.53,North,-999,-999.0,-999.0,71,-99.99,,,-99.99,thermd,2013-07-04 12:20:00,
2013-07-04 08:30:00,72.2,62.7,29.53,North,-999,-999.0,-999.0,71,-99.99,,,-99.99,thermd,2013-07-04 12:30:00,
2013-07-04 08:40:00,72.5,62.9,29.53,North,-999,-999.0,-999.0,71,-99.99,,,-99.99,thermd,2013-07-04 12:40:00,
2013-07-04 08:50:00,72.6,63.0,29.53,North,-999,-999.0,-999.0,71,-99.99,,,-99.99,thermd,2013-07-04 12:50:00,
2013-07-04 09:00:00,72.6,63.0,29.53,North,-999,-999.0,-999.0,71,-99.99,,,-99.99,thermd,2013-07-04 13:00:00,
2013-07-04 09:10:00,72.7,63.2,29.54,North,-999,-999.0,-999.0,72,-99.99,,,-99.99,thermd,2013-07-04 13:10:00,
2013-07-04 09:20:00,72.9,63.5,29.55,North,-999,-999.0,-999.0,71,-99.99,,,-99.99,thermd,2013-07-04 13:20:00,
2013-07-04 09:30:00,73.2,63.6,29.55,North,-999,-999.0,-999.0,71,-99.99,,,-99.99,thermd,2013-07-04 13:30:00,
2013-07-04 09:40:00,73.4,64.1,29.55,North,-999,-999.0,-999.0,72,-99.99,,,-99.99,thermd,2013-07-04 13:40:00,
2013-07-04 09:50:00,73.8,64.3,29.55,North,-999,-999.0,-999.0,71,-99.99,,,-99.99,thermd,2013-07-04 13:50:00,
2013-07-04 10:00:00,74.1,64.4,29.54,North,-999,-999.0,-999.0,71,-99.99,,,-99.99,thermd,2013-07-04 14:00:00,
2013-07-04 10:10:00,74.6,64.7,29.54,North,-999,-999.0,-999.0,71,-99.99,,,-99.99,thermd,2013-07-04 14:10:00,
2013-07-04 10:20:00,74.8,64.7,29.54,North,-999,-999.0,-999.0,70,-99.99,,,-99.99,thermd,2013-07-04 14:20:00,
2013-07-04 10:30:00,74.9,64.8,29.53,North,-999,-999.0,-999.0,70,-99.99,,,-99.99,thermd,2013-07-04 14:30:00,
2013-07-04 10:40:00,75.4,64.8,29.54,North,-999,-999.0,-999.0,69,-99.99,,,-99.99,thermd,2013-07-04 14:40:00,
2013-07-04 10:50:00,75.7,65.0,29.54,North,-999,-999.0,-999.0,69,-99.99,,,-99.99,thermd,2013-07-04 14:50:00,
2013-07-04 11:00:00,75.7,64.7,29.53,North,-999,-999.0,-999.0,69,-99.99,,,-99.99,thermd,2013-07-04 15:00:00,
2013-07-04 11:10:00,75.6,64.7,29.53,North,-999,-999.0,-999.0,68,-99.99,,,-99.99,thermd,2013-07-04 15:10:00,
2013-07-04 11:20:00,76.2,65.3,29.53,North,-999,-999.0,-999.0,68,-99.99,,,-99.99,thermd,2013-07-04 15:20:00,
2013-07-04 11:30:00,76.4,65.2,29.52,North,-999,-999.0,-999.0,67,-99.99,,,-99.99,thermd,2013-07-04 15:30:00,
2013-07-04 11:40:00,76.9,65.4,29.52,North,-999,-999.0,-999.0,67,-99.99,,,-99.99,thermd,2013-07-04 15:40:00,
2013-07-04 11:50:00,77.0,64.9,29.52,North,-999,-999.0,-999.0,66,-99.99,,,-99.99,thermd,2013-07-04 15:50:00,
2013-07-04 12:00:00,76.7,64.6,29.52,North,-999,-999.0,-999.0,66,-99.99,,,-99.99,thermd,2013-07-04 16:00:00,
2013-07-04 12:10:00,76.9,65.2,29.52,North,-999,-999.0,-999.0,66,-99.99,,,-99.99,thermd,2013-07-04 16:10:00,
2013-07-04 12:20:00,78.2,66.0,29.52,North,-999,-999.0,-999.0,65,-99.99,,,-99.99,thermd,2013-07-04 16:20:00,
2013-07-04 12:30:00,78.5,65.7,29.52,North,-999,-999.0,-999.0,65,-99.99,,,-99.99,thermd,2013-07-04 16:30:00,
2013-07-04 12:40:00,78.7,66.2,29.52,North,-999,-999.0,-999.0,64,-99.99,,,-99.99,thermd,2013-07-04 16:40:00,
2013-07-04 12:50:00,79.1,65.5,29.52,North,-999,-999.0,-999.0,64,-99.99,,,-99.99,thermd,2013-07-04 16:50:00,
2013-07-04 13:00:00,78.4,65.2,29.52,North,-999,-999.0,-999.0,63,-99.99,,,-99.99,thermd,2013-07-04 17:00:00,
2013-07-04 13:10:00,78.9,65.1,29.51,North,-999,-999.0,-999.0,63,-99.99,,,-99.99,thermd,2013-07-04 17:10:00,
2013-07-04 13:20:00,78.7,65.8,29.51,North,-999,-999.0,-999.0,63,-99.99,,,-99.99,thermd,2013-07-04 17:20:00,
2013-07-04 13:30:00,79.5,65.8,29.51,North,-999,-999.0,-999.0,62,-99.99,,,-99.99,thermd,2013-07-04 17:30:00,
2013-07-04 13:40:00,79.6,65.8,29.50,North,-999,-999.0,-999.0,62,-99.99,,,-99.99,thermd,2013-07-04 17:40:00,
2013-07-04 13:50:00,80.7,66.2,29.50,North,-999,-999.0,-999.0,61,-99.99,,,-99.99,thermd,2013-07-04 17:50:00,
2013-07-04 14:00:00,80.7,66.0,29.51,North,-999,-999.0,-999.0,60,-99.99,,,-99.99,thermd,2013-07-04 18:00:00,
2013-07-04 14:10:00,80.6,65.6,29.51,North,-999,-999.0,-999.0,60,-99.99,,,-99.99,thermd,2013-07-04 18:10:00,
2013-07-04 14:20:00,80.3,65.4,29.50,North,-999,-999.0,-999.0,60,-99.99,,,-99.99,thermd,2013-07-04 18:20:00,
2013-07-04 14:30:00,80.7,65.7,29.50,North,-999,-999.0,-999.0,59,-99.99,,,-99.99,thermd,2013-07-04 18:30:00,
2013-07-04 14:40:00,81.2,64.8,29.50,North,-999,-999.0,-999.0,58,-99.99,,,-99.99,thermd,2013-07-04 18:40:00,
2013-07-04 14:50:00,80.4,64.4,29.50,North,-999,-999.0,-999.0,58,-99.99,,,-99.99,thermd,2013-07-04 18:50:00,
2013-07-04 15:00:00,81.1,64.8,29.50,North,-999,-999.0,-999.0,57,-99.99,,,-99.99,thermd,2013-07-04 19:00:00,
2013-07-04 15:10:00,81.2,64.5,29.49,North,-999,-999.0,-999.0,57,-99.99,,,-99.99,thermd,2013-07-04 19:10:00,
2013-07-04 15:20:00,81.1,64.5,29.49,North,-999,-999.0,-999.0,57,-99.99,,,-99.99,thermd,2013-07-04 19:20:00,
2013-07-04 15:30:00,81.2,64.0,29.48,North,-999,-999.0,-999.0,56,-99.99,,,-99.99,thermd,2013-07-04 19:30:00,
2013-07-04 15:40:00,81.3,64.6,29.48,North,-999,-999.0,-999.0,56,-99.99,,,-99.99,thermd,2013-07-04 19:40:00,
2013-07-04 15:50:00,81.3,64.1,29.48,North,-999,-999.0,-999.0,56,-99.99,,,-99.99,thermd,2013-07-04 19:50:00,
2013-07-04 16:00:00,81.6,64.1,29.48,North,-999,-999.0,-999.0,56,-99.99,,,-99.99,thermd,2013-07-04 20:00:00,
2013-07-04 16:10:00,81.4,64.0,29.47,North,-999,-999.0,-999.0,55,-99.99,,,-99.99,thermd,2013-07-04 20:10:00,
2013-07-04 16:20:00,81.5,63.8,29.46,North,-999,-999.0,-999.0,55,-99.99,,,-99.99,thermd,2013-07-04 20:20:00,
2013-07-04 16:30:00,81.3,64.0,29.46,North,-999,-999.0,-999.0,55,-99.99,,,-99.99,thermd,2013-07-04 20:30:00,
2013-07-04 16:40:00,81.9,63.8,29.45,North,-999,-999.0,-999.0,54,-99.99,,,-99.99,thermd,2013-07-04 20:40:00,
2013-07-04 16:50:00,81.9,63.8,29.45,North,-999,-999.0,-999.0,54,-99.99,,,-99.99,thermd,2013-07-04 20:50:00,
2013-07-04 17:00:00,81.9,63.6,29.45,North,-999,-999.0,-999.0,54,-99.99,,,-99.99,thermd,2013-07-04 21:00:00,
2013-07-04 17:10:00,81.7,63.3,29.45,North,-999,-999.0,-999.0,54,-99.99,,,-99.99,thermd,2013-07-04 21:10:00,
2013-07-04 17:20:00,81.9,63.5,29.45,North,-999,-999.0,-999.0,54,-99.99,,,-99.99,thermd,2013-07-04 21:20:00,
2013-07-04 17:30:00,82.1,63.8,29.45,North,-999,-999.0,-999.0,53,-99.99,,,-99.99,thermd,2013-07-04 21:30:00,
2013-07-04 17:40:00,82.5,63.6,29.45,North,-999,-999.0,-999.0,53,-99.99,,,-99.99,thermd,2013-07-04 21:40:00,
2013-07-04 17:50:00,81.6,62.9,29.45,North,-999,-999.0,-999.0,53,-99.99,,,-99.99,thermd,2013-07-04 21:50:00,
2013-07-04 18:00:00,81.1,63.0,29.45,North,-999,-999.0,-999.0,54,-99.99,,,-99.99,thermd,2013-07-04 22:00:00,
2013-07-04 18:10:00,81.3,63.2,29.45,North,-999,-999.0,-999.0,54,-99.99,,,-99.99,thermd,2013-07-04 22:10:00,
2013-07-04 18:20:00,81.7,63.3,29.45,North,-999,-999.0,-999.0,53,-99.99,,,-99.99,thermd,2013-07-04 22:20:00,
2013-07-04 18:30:00,81.1,62.8,29.45,North,-999,-999.0,-999.0,54,-99.99,,,-99.99,thermd,2013-07-04 22:30:00,
2013-07-04 18:40:00,80.7,62.5,29.45,North,-999,-999.0,-999.0,54,-99.99,,,-99.99,thermd,2013-07-04 22:40:00,
2013-07-04 18:50:00,80.7,63.4,29.45,North,-999,-999.0,-999.0,54,-99.99,,,-99.99,thermd,2013-07-04 22:50:00,
2013-07-04 19:00:00,81.1,63.0,29.45,North,-999,-999.0,-999.0,54,-99.99,,,-99.99,thermd,2013-07-04 23:00:00,
2013-07-04 19:10:00,80.9,62.9,29.45,North,-999,-999.0,-999.0,54,-99.99,,,-99.99,thermd,2013-07-04 23:10:00,
2013-07-04 19:20:00,80.5,62.7,29.45,North,-999,-999.0,-999.0,54,-99.99,,,-99.99,thermd,2013-07-04 23:20:00,
2013-07-04 19:30:00,80.5,63.4,29.46,North,-999,-999.0,-999.0,55,-99.99,,,-99.99,thermd,2013-07-04 23:30:00,
2013-07-04 19:40:00,80.5,63.3,29.46,North,-999,-999.0,-999.0,55,-99.99,,,-99.99,thermd,2013-07-04 23:40:00,
2013-07-04 19:50:00,80.7,63.2,29.46,North,-999,-999.0,-999.0,55,-99.99,,,-99.99,thermd,2013-07-04 23:50:00,
2013-07-04 20:00:00,80.2,63.0,29.47,North,-999,-999.0,-999.0,56,-99.99,,,-99.99,thermd,2013-07-05 00:00:00,
2013-07-04 20:10:00,79.2,62.3,29.47,North,-999,-999.0,-999.0,56,-99.99,,,-99.99,thermd,2013-07-05 00:10:00,
2013-07-04 20:20:00,78.7,62.5,29.47,North,-999,-999.0,-999.0,57,-99.99,,,-99.99,thermd,2013-07-05 00:20:00,
2013-07-04 20:30:00,78.0,61.9,29.46,North,-999,-999.0,-999.0,58,-99.99,,,-99.99,thermd,2013-07-05 00:30:00,
2013-07-04 20:40:00,77.6,61.6,29.47,North,-999,-999.0,-999.0,58,-99.99,,,-99.99,thermd,2013-07-05 00:40:00,
2013-07-04 20:50:00,77.1,61.3,29.47,North,-999,-999.0,-999.0,58,-99.99,,,-99.99,thermd,2013-07-05 00:50:00,
2013-07-04 21:00:00,76.7,61.3,29.47,North,-999,-999.0,-999.0,59,-99.99,,,-99.99,thermd,2013-07-05 01:00:00,
2013-07-04 21:10:00,76.4,61.2,29.47,North,-999,-999.0,-999.0,59,-99.99,,,-99.99,thermd,2013-07-05 01:10:00,
2013-07-04 21:20:00,76.4,61.3,29.48,North,-999,-999.0,-999.0,59,-99.99,,,-99.99,thermd,2013-07-05 01:20:00,
2013-07-04 21:30:00,76.4,61.4,29.48,North,-999,-999.0,-999.0,59,-99.99,,,-99.99,thermd,2013-07-05 01:30:00,
2013-07-04 21:40:00,75.9,60.6,29.47,North,-999,-999.0,-999.0,60,-99.99,,,-99.99,thermd,2013-07-05 01:40:00,
2013-07-04 21:50:00,74.5,60.0,29.47,North,-999,-999.0,-999.0,61,-99.99,,,-99.99,thermd,2013-07-05 01:50:00,
2013-07-04 22:00:00,73.6,59.9,29.48,North,-999,-999.0,-999.0,62,-99.99,,,-99.99,thermd,2013-07-05 02:00:00,
2013-07-04 22:10:00,73.2,59.7,29.48,North,-999,-999.0,-999.0,63,-99.99,,,-99.99,thermd,2013-07-05 02:10:00,
2013-07-04 22:20:00,72.9,59.6,29.48,North,-999,-999.0,-999.0,63,-99.99,,,-99.99,thermd,2013-07-05 02:20:00,
2013-07-04 22:30:00,72.7,59.8,29.48,North,-999,-999.0,-999.0,63,-99.99,,,-99.99,thermd,2013-07-05 02:30:00,
2013-07-04 22:40:00,72.7,60.0,29.48,North,-999,-999.0,-999.0,64,-99.99,,,-99.99,thermd,2013-07-05 02:40:00,
2013-07-04 22:50:00,72.7,60.2,29.48,North,-999,-999.0,-999.0,64,-99.99,,,-99.99,thermd,2013-07-05 02:50:00,
2013-07-04 23:00:00,72.6,60.2,29.48,North,-999,-999.0,-999.0,65,-99.99,,,-99.99,thermd,2013-07-05 03:00:00,
2013-07-04 23:10:00,72.4,59.8,29.48,North,-999,-999.0,-999.0,65,-99.99,,,-99.99,thermd,2013-07-05 03:10:00,
2013-07-04 23:20:00,72.0,59.6,29.47,North,-999,-999.0,-999.0,65,-99.99,,,-99.99,thermd,2013-07-05 03:20:00,
2013-07-04 23:30:00,71.9,59.8,29.48,North,-999,-999.0,-999.0,65,-99.99,,,-99.99,thermd,2013-07-05 03:30:00,
2013-07-04 23:40:00,72.2,60.2,29.48,North,-999,-999.0,-999.0,65,-99.99,,,-99.99,thermd,2013-07-05 03:40:00,
2013-07-04 23:50:00,72.1,60.1,29.47,North,-999,-999.0,-999.0,66,-99.99,,,-99.99,thermd,2013-07-05 03:50:00,